Location: Newark
(50.1395°N, 5.5234°W)
Time: 20:04:02
(UTC+00:00)

ISS - Pass Details

Date: 11 March 2021
Orbit: 418 x 422 km, 51.6° (Epoch: 16 April)

Event Time Altitude Azimuth Distance (km) Brightness Sun altitude
Exits shadow 05:33:31 18° 234° (SW) 1,108 -2.2 -12.1°
Maximum altitude 05:34:07 19° 219° (SW) 1,077 -2.1 -12.0°
Drops below altitude 10° 05:36:33 10° 173° (S) 1,492 -1.0 -11.7°
Sets 05:39:02 0° 154° (SSE) 2,352 0.3 -11.3°
